Temperature
-7 -7 -6 -5 -5 -5 -5 -5 -5 -5 -4 -3 -2 -1 1 2 3 4 5 5 6 6 6 6 5 5 5 6 6 6 6 6 7 7 7 7 7 7 7 7 7 7 7
-8 -8 -7 -7 -6 -6 -5 -5 -5 -5 -4 -3 -2 -0 1 2 2 3 4 4 6 6 6 6 5 5 4 3 4 5 5 6 6 6 6 7 7 7 7 7 7 7 7
-8 -8 -7 -7 -7 -7 -6 -6 -6 -5 -5 -3 -2 -1 0 0 1 2 2 3 4 4 4 4 4 4 1 2 3 4 4 5 5 5 6 6 6 6 7 7 6 6 6
-9 -9 -8 -8 -8 -8 -7 -6 -6 -6 -5 -4 -3 -2 -1 -1 -0 0 1 1 1 1 1 1 1 1 1 1 2 2 3 4 4 5 5 5 5 6 6 6 6 5 5
-10 -10 -10 -9 -9 -8 -8 -7 -6 -6 -5 -5 -4 -4 -4 -3 -2 -2 -1 -1 -1 -1 -1 -1 -1 -1 -1 -0 0 1 2 2 3 3 4 4 4 4 5 5 5 5 4
-10 -10 -10 -10 -9 -9 -9 -8 -7 -7 -6 -6 -5 -5 -5 -5 -5 -4 -3 -4 -4 -3 -3 -3 -3 -2 -2 -2 -1 -1 -0 0 1 1 1 2 3 3 3 4 4 4 4
-11 -11 -11 -11 -10 -10 -10 -9 -8 -8 -7 -7 -7 -6 -6 -6 -6 -6 -5 -5 -5 -5 -5 -5 -5 -4 -4 -3 -3 -2 -2 -2 -2 -1 -1 -0 0 1 2 2 2 3 3
-11 -11 -11 -11 -11 -10 -10 -10 -9 -9 -8 -8 -8 -8 -7 -7 -7 -7 -7 -6 -7 -7 -7 -7 -6 -6 -6 -5 -5 -4 -4 -4 -3 -3 -2 -2 -2 -1 -1 -0 1 1 1
-12 -12 -12 -12 -12 -11 -11 -11 -10 -10 -9 -9 -9 -9 -8 -8 -7 -8 -8 -8 -8 -8 -8 -8 -8 -8 -8 -7 -6 -6 -5 -5 -5 -5 -5 -5 -4 -3 -3 -2 -1 -0 -0
-13 -13 -13 -13 -13 -13 -12 -12 -11 -11 -10 -10 -10 -10 -10 -9 -9 -8 -9 -8 -9 -9 -9 -9 -9 -9 -9 -9 -8 -7 -7 -7 -6 -6 -6 -6 -6 -5 -5 -4 -4 -3 -3
-14 -14 -14 -13 -13 -13 -13 -13 -12 -11 -11 -11 -11 -10 -10 -10 -9 -9 -9 -9 -9 -9 -9 -10 -10 -10 -10 -10 -9 -9 -8 -8 -7 -7 -7 -7 -7 -7 -7 -6 -5 -5 -5
-14 -14 -14 -14 -15 -14 -14 -13 -13 -12 -12 -12 -12 -11 -11 -10 -10 -10 -9 -9 -9 -10 -10 -10 -10 -11 -10 -10 -10 -10 -9 -9 -9 -8 -9 -9 -8 -8 -8 -7 -7 -6 -6
-15 -15 -15 -15 -15 -15 -15 -14 -14 -13 -13 -13 -13 -13 -12 -12 -11 -11 -11 -10 -10 -10 -10 -10 -11 -11 -11 -11 -11 -10 -10 -9 -9 -9 -9 -10 -9 -9 -9 -8 -8 -7 -7
-15 -15 -15 -15 -15 -15 -15 -15 -15 -14 -14 -13 -13 -13 -13 -12 -12 -11 -11 -11 -10 -10 -10 -11 -11 -12 -11 -11 -11 -11 -11 -11 -11 -11 -11 -11 -10 -10 -10 -9 -9 -8 -8
-15 -15 -15 -15 -15 -15 -15 -16 -15 -15 -14 -14 -14 -14 -13 -13 -12 -11 -11 -11 -11 -11 -11 -11 -12 -12 -12 -12 -12 -12 -12 -12 -12 -12 -12 -12 -11 -11 -11 -10 -10 -10 -9
-15 -15 -16 -16 -16 -16 -16 -15 -15 -15 -15 -15 -14 -14 -14 -13 -12 -12 -12 -12 -11 -12 -12 -12 -13 -13 -13 -13 -13 -13 -13 -13 -13 -13 -13 -13 -13 -12 -12 -12 -11 -11 -11
-15 -15 -15 -16 -16 -16 -16 -16 -16 -15 -15 -16 -15 -15 -14 -13 -13 -13 -13 -13 -13 -13 -13 -14 -14 -14 -14 -14 -15 -15 -15 -15 -15 -14 -14 -14 -14 -14 -13 -13 -13 -12 -12
-15 -15 -15 -15 -15 -15 -16 -15 -15 -15 -15 -15 -15 -15 -15 -14 -14 -14 -14 -15 -14 -14 -14 -15 -15 -15 -15 -15 -15 -15 -15 -15 -15 -15 -15 -15 -15 -15 -15 -14 -14 -13 -13
-15 -15 -15 -15 -15 -15 -15 -15 -15 -15 -15 -15 -15 -14 -15 -15 -15 -15 -15 -15 -15 -15 -15 -15 -15 -16 -16 -16 -16 -16 -16 -16 -16 -16 -16 -16 -16 -16 -15 -15 -15 -14 -15
-14 -14 -14 -15 -14 -14 -14 -14 -15 -15 -15 -15 -15 -15 -15 -15 -15 -15 -15 -15 -15 -16 -16 -16 -16 -16 -16 -16 -16 -16 -16 -16 -16 -17 -17 -16 -16 -16 -16 -16 -15 -15 -15
-13 -13 -14 -14 -14 -15 -15 -15 -15 -15 -15 -15 -15 -15 -15 -15 -15 -15 -15 -15 -15 -15 -16 -16 -16 -16 -16 -16 -16 -17 -17 -17 -17 -17 -17 -17 -17 -16 -16 -16 -16 -16 -15
-14 -14 -14 -14 -15 -15 -16 -16 -16 -16 -16 -15 -15 -15 -15 -15 -15 -15 -15 -15 -15 -15 -15 -15 -16 -16 -16 -16 -16 -16 -17 -17 -17 -16 -16 -16 -16 -16 -16 -16 -16 -15 -15
-13 -13 -14 -14 -14 -15 -15 -15 -16 -16 -16 -16 -16 -15 -15 -15 -15 -15 -15 -15 -15 -15 -15 -15 -15 -16 -16 -16 -16 -16 -16 -16 -16 -16 -16 -16 -16 -16 -16 -15 -15 -15 -15
-12 -12 -12 -13 -13 -14 -14 -15 -15 -15 -16 -16 -16 -16 -16 -15 -15 -15 -15 -15 -15 -15 -15 -15 -15 -16 -16 -16 -16 -16 -16 -16 -16 -15 -15 -15 -15 -15 -15 -14 -14 -14 -14
-10 -11 -12 -12 -12 -13 -13 -13 -14 -14 -15 -15 -15 -16 -16 -16 -15 -15 -15 -15 -15 -15 -15 -15 -15 -15 -15 -15 -15 -15 -15 -15 -15 -15 -15 -14 -14 -14 -14 -14 -14 -13 -13
-10 -11 -12 -12 -13 -13 -13 -13 -13 -13 -14 -15 -15 -15 -15 -16 -16 -15 -15 -15 -15 -15 -15 -15 -15 -15 -15 -15 -15 -15 -15 -15 -14 -14 -14 -14 -14 -14 -14 -14 -14 -14 -14
Wind_Speed
19 18 17 17 18 17 15 18 19 18 19 21 22 19 17 12 7 6 7 5 8 8 7 8 6 4 5 4 1 2 3 4 4 4 3 2 3 4 3 6 8 10 12
18 17 17 17 18 17 16 18 19 18 20 21 18 12 6 3 2 3 4 5 6 8 7 7 5 7 6 5 3 2 0 3 4 5 4 3 3 4 5 5 4 8 9
17 17 17 17 19 18 18 19 19 19 20 20 15 11 13 9 7 7 7 8 9 9 8 8 7 7 2 1 4 3 3 1 2 4 4 2 2 1 2 3 2 2 3
17 16 16 17 17 17 18 19 19 18 19 19 17 14 13 12 12 12 11 11 11 10 9 9 8 6 5 4 4 4 4 3 1 1 2 1 1 2 2 2 3 3 3
17 16 15 15 16 16 16 17 18 17 16 17 18 16 13 12 13 14 14 13 12 11 11 10 10 11 12 8 6 6 6 4 3 2 1 2 2 2 1 1 3 3 3
16 16 16 15 15 16 16 16 17 16 14 13 15 16 15 13 19 20 16 12 12 12 10 9 9 11 12 12 12 11 10 7 4 3 2 2 2 2 2 2 2 3 3
15 16 16 16 16 16 16 16 16 16 14 9 11 13 14 15 19 18 16 10 10 9 7 7 7 8 8 7 8 10 12 14 11 7 5 4 3 4 3 2 2 1 2
15 16 16 15 15 15 16 15 15 14 14 10 8 10 12 15 16 13 13 9 7 7 7 7 8 8 8 9 6 9 10 10 11 9 7 4 2 3 3 2 2 2 4
15 16 16 15 15 15 15 15 14 12 12 12 9 8 11 13 15 13 10 6 6 7 7 7 7 7 10 12 7 7 8 8 10 11 11 11 12 9 3 2 3 2 2
16 16 15 14 14 12 14 13 13 13 12 12 9 9 12 12 14 12 9 4 5 5 6 8 10 8 9 11 6 5 7 7 6 8 10 13 13 14 16 9 4 2 2
16 16 15 15 13 11 12 12 11 11 12 11 10 11 12 13 16 16 9 4 3 2 2 3 4 7 9 10 9 7 9 7 6 7 7 8 7 8 8 8 7 5 3
16 16 15 15 13 12 12 12 11 10 11 10 8 8 9 11 14 17 17 11 4 1 1 2 3 8 9 10 11 13 12 9 6 6 7 7 7 6 6 6 7 7 5
15 14 14 14 13 12 12 12 11 10 10 8 8 8 7 8 10 16 18 18 14 2 1 1 4 8 9 10 12 13 11 8 7 7 6 6 6 5 6 5 6 7 6
13 13 13 12 13 11 11 11 11 11 10 10 10 9 8 7 7 8 7 7 8 5 1 3 4 6 8 8 8 8 7 6 6 6 5 4 5 5 5 6 5 5 3
12 11 11 10 9 9 9 10 10 11 13 12 9 9 8 9 12 14 10 7 4 2 4 3 3 4 4 4 4 5 5 5 5 5 5 5 5 5 5 5 5 4 3
11 11 11 9 8 8 8 9 13 17 20 20 19 15 11 15 17 17 16 20 13 3 4 4 4 3 2 2 3 3 3 3 3 4 4 4 3 3 3 3 3 3 3
10 11 11 10 7 8 9 8 9 12 17 19 19 18 17 17 16 15 14 15 15 12 6 4 2 1 1 1 1 1 1 1 1 0 1 0 1 2 3 3 3 3 4
11 14 12 9 7 7 8 8 8 8 8 10 14 16 17 16 16 15 13 10 7 6 4 3 2 2 2 2 3 3 3 3 2 2 2 3 3 2 2 3 3 3 4
13 11 11 9 8 9 8 8 8 7 6 6 8 11 13 12 11 10 9 4 3 3 2 2 2 3 3 3 3 3 4 4 4 3 4 4 4 3 4 4 4 7 6
13 19 18 13 10 10 9 8 8 7 7 6 6 6 6 5 3 2 2 2 2 3 3 4 4 4 4 4 4 4 4 5 4 4 5 5 5 4 5 5 5 5 5
13 16 22 16 11 11 11 10 9 8 8 8 7 9 12 6 4 3 3 3 4 4 5 5 5 5 5 5 5 5 5 5 5 5 5 5 5 5 6 6 6 6 6
14 15 16 13 12 12 12 11 10 10 9 10 9 10 14 7 3 4 5 5 5 5 5 5 5 5 5 5 5 5 6 6 6 6 6 6 6 6 6 6 6 6 7
15 15 14 14 13 15 15 12 11 11 11 10 9 8 8 6 5 5 5 5 5 5 5 4 5 5 7 8 9 7 6 7 7 7 7 7 7 7 7 7 8 8 9
13 14 15 14 14 14 13 12 11 12 12 10 9 8 7 6 5 6 5 5 5 5 5 5 6 5 7 8 10 11 11 13 14 13 10 10 10 11 10 11 11 12 11
14 15 15 15 15 15 15 14 12 11 10 10 9 9 7 6 5 5 5 5 5 5 4 5 7 8 9 10 11 13 16 18 18 17 14 11 14 14 13 13 13 13 12
16 16 16 15 15 15 14 14 12 10 8 7 7 7 6 5 4 5 5 5 5 5 4 6 9 10 11 12 14 16 18 20 22 21 14 6 8 9 10 11 13 13 13
Wind_Direction
343 341 340 339 334 326 323 324 322 314 311 307 301 297 277 243 214 173 152 150 113 103 93 94 85 30 2 6 11 201 190 163 186 227 249 263 190 178 162 177 174 163 173
340 340 340 337 334 332 334 335 333 326 320 309 306 329 316 231 178 167 147 131 113 109 98 91 78 63 22 346 9 24 125 197 181 211 234 226 220 198 171 184 185 173 182
337 338 340 339 336 336 341 339 339 340 335 331 332 14 32 24 40 51 55 64 67 67 72 83 81 95 158 6 34 35 32 17 189 189 219 221 251 15 108 96 79 101 191
335 335 338 338 337 336 341 340 340 344 346 348 356 24 37 34 37 41 46 50 58 59 60 65 75 96 112 95 61 35 34 43 44 164 148 125 56 360 59 111 112 77 41
338 336 334 337 336 334 337 339 339 343 348 352 3 14 32 45 50 48 46 43 44 43 40 39 44 55 66 75 73 54 42 36 34 36 76 98 66 43 70 120 140 134 74
341 338 337 338 339 339 338 337 341 341 346 357 7 9 14 31 46 51 54 48 45 38 30 27 33 40 39 42 53 59 59 56 48 47 26 54 68 47 15 47 112 163 155
341 339 338 339 339 340 342 343 343 344 341 359 13 10 5 13 36 45 53 55 56 49 36 26 29 25 40 30 43 66 60 59 62 56 52 36 28 24 16 62 77 36 92
341 342 341 340 340 341 343 343 343 345 348 356 14 17 7 1 22 48 56 60 62 55 43 32 25 9 24 29 30 71 69 65 61 59 60 47 42 12 12 7 57 75 86
343 342 339 340 341 346 347 344 346 347 349 350 8 10 17 357 14 44 61 52 49 45 35 25 35 5 32 39 38 64 65 46 55 59 70 72 68 61 61 52 29 60 95
342 339 338 340 338 345 346 343 345 350 350 355 9 9 15 357 3 25 49 48 45 41 31 19 18 23 42 55 43 45 64 44 50 66 65 63 54 50 50 50 32 60 102
338 338 340 342 341 350 345 341 341 347 350 354 8 8 5 2 355 359 26 45 53 59 37 9 347 29 42 45 49 47 55 44 55 72 67 58 50 45 42 40 38 40 49
337 339 342 341 347 352 345 343 343 348 346 342 353 3 355 351 351 350 0 9 26 69 61 347 357 46 43 47 53 48 47 46 48 66 65 53 45 43 40 34 32 35 36
338 339 341 343 353 349 346 345 350 353 349 348 351 353 341 336 335 342 347 353 357 11 179 132 51 60 57 47 51 48 43 40 47 58 56 44 31 36 40 22 18 19 27
336 336 338 350 355 346 347 347 351 351 351 354 351 343 334 320 312 311 311 322 340 350 9 55 66 81 72 59 52 46 39 46 56 53 45 30 27 24 30 16 5 8 13
335 335 336 351 344 337 341 345 350 348 351 351 342 338 333 324 319 327 336 320 290 238 127 100 83 76 69 58 56 49 44 46 47 44 42 30 28 17 12 10 3 1 360
332 332 334 343 334 335 330 333 343 350 351 351 344 339 335 326 333 346 356 359 346 116 105 106 97 85 68 46 36 42 40 48 41 32 39 24 17 356 343 353 352 340 321
321 322 329 330 323 325 325 326 327 333 340 344 347 346 340 339 346 350 6 17 29 50 55 59 63 85 142 177 186 192 205 191 175 149 155 242 304 323 343 335 330 328 309
309 317 317 307 303 307 312 313 311 314 318 321 333 343 345 353 3 1 15 22 26 40 34 28 3 327 268 233 220 217 228 237 230 218 223 237 250 263 273 274 289 283 287
307 304 299 296 289 298 301 296 295 290 289 293 311 327 337 345 6 11 16 18 12 6 359 1 349 332 304 274 258 243 232 240 250 232 235 236 242 243 260 264 269 292 299
301 300 301 292 289 291 282 275 275 275 276 273 276 285 299 306 300 318 312 279 277 276 286 292 294 290 287 278 269 259 253 260 261 242 247 248 247 241 248 258 255 260 262
294 296 299 292 289 291 287 280 275 269 265 266 266 271 285 273 233 267 273 263 250 250 254 258 266 271 273 267 260 259 253 254 253 250 252 249 242 242 244 242 245 248 252
297 296 298 292 292 290 285 277 268 266 266 270 273 276 284 283 269 268 266 265 261 253 244 240 250 249 246 249 255 253 251 251 251 248 248 247 240 238 242 246 247 244 249
307 306 307 305 300 298 294 284 273 264 258 256 263 270 272 262 255 256 259 264 266 265 260 246 254 261 265 259 246 234 240 249 249 243 242 247 246 243 237 239 241 245 244
323 318 315 311 307 304 298 290 277 271 267 257 249 249 259 254 241 253 261 265 270 272 269 262 268 259 267 274 274 266 254 254 252 245 239 243 247 251 249 245 244 241 241
327 324 320 316 313 309 303 295 285 272 260 254 252 247 245 246 232 238 251 263 272 280 271 270 281 280 282 285 285 285 283 280 274 262 249 242 245 244 241 243 247 247 244
331 329 327 324 323 319 315 310 300 285 263 250 245 233 234 235 231 241 256 269 277 281 271 279 291 289 289 291 294 296 295 292 288 287 283 263 265 262 253 247 246 244 244
Height
1484 1479 1472 1465 1459 1453 1447 1440 1431 1423 1415 1408 1403 1399 1396 1397 1400 1403 1405 1407 1407 1407 1410 1414 1419 1423 1425 1427 1428 1430 1432 1434 1436 1440 1444 1445 1447 1449 1452 1456 1459 1460 1462
1484 1478 1471 1465 1458 1452 1446 1438 1429 1420 1412 1405 1400 1394 1390 1392 1396 1398 1400 1402 1404 1403 1407 1411 1413 1414 1420 1423 1423 1424 1426 1429 1431 1434 1439 1441 1443 1445 1448 1452 1455 1457 1459
1482 1475 1468 1462 1456 1450 1444 1437 1429 1420 1410 1403 1398 1393 1390 1391 1392 1394 1396 1397 1397 1400 1403 1405 1407 1409 1417 1418 1418 1419 1420 1424 1426 1429 1432 1436 1438 1439 1443 1446 1449 1452 1455
1482 1475 1467 1461 1455 1449 1443 1436 1429 1422 1413 1404 1397 1393 1392 1391 1390 1390 1391 1392 1394 1397 1399 1400 1401 1405 1408 1411 1412 1413 1415 1417 1420 1423 1427 1429 1431 1433 1437 1440 1444 1446 1450
1481 1474 1468 1461 1455 1448 1442 1436 1429 1424 1418 1411 1402 1397 1395 1393 1392 1391 1390 1390 1391 1393 1395 1396 1398 1400 1402 1405 1406 1407 1409 1412 1415 1418 1421 1424 1425 1428 1432 1435 1438 1441 1444
1479 1473 1467 1460 1453 1446 1440 1435 1430 1425 1421 1415 1409 1403 1399 1398 1396 1394 1392 1394 1394 1395 1396 1398 1398 1398 1400 1402 1402 1404 1406 1409 1411 1414 1416 1419 1421 1423 1426 1429 1433 1436 1438
1479 1473 1466 1460 1453 1447 1441 1435 1430 1426 1422 1417 1412 1409 1405 1402 1400 1398 1397 1397 1397 1398 1399 1400 1399 1398 1399 1400 1401 1402 1403 1405 1408 1410 1412 1413 1416 1418 1421 1424 1426 1429 1431
1478 1471 1465 1459 1454 1448 1442 1437 1431 1426 1422 1419 1415 1412 1409 1406 1405 1402 1400 1400 1400 1400 1401 1401 1400 1399 1400 1400 1401 1401 1402 1405 1406 1407 1409 1410 1411 1412 1416 1419 1421 1425 1426
1476 1470 1464 1459 1453 1448 1443 1437 1433 1428 1424 1420 1417 1414 1411 1409 1408 1406 1404 1403 1402 1402 1402 1401 1400 1401 1400 1399 1400 1401 1401 1402 1404 1405 1407 1408 1409 1411 1413 1415 1417 1420 1421
1475 1469 1463 1458 1453 1448 1443 1439 1434 1430 1427 1422 1419 1416 1413 1412 1411 1409 1407 1405 1403 1403 1403 1403 1403 1403 1402 1400 1400 1399 1398 1400 1401 1403 1405 1406 1408 1409 1410 1412 1414 1417 1417
1475 1469 1463 1458 1453 1448 1443 1439 1435 1431 1427 1424 1421 1418 1416 1413 1411 1411 1409 1407 1405 1405 1405 1404 1404 1403 1402 1401 1399 1398 1397 1400 1401 1402 1404 1406 1408 1408 1409 1410 1412 1414 1415
1475 1469 1463 1458 1453 1448 1443 1439 1435 1432 1428 1425 1422 1419 1417 1415 1412 1410 1409 1408 1406 1406 1405 1404 1402 1402 1402 1402 1400 1399 1400 1401 1401 1402 1403 1405 1407 1407 1408 1409 1410 1411 1412
1475 1469 1464 1459 1454 1449 1444 1439 1436 1432 1429 1426 1423 1420 1417 1415 1412 1410 1409 1407 1406 1405 1404 1404 1404 1403 1403 1403 1402 1401 1401 1401 1401 1402 1403 1404 1405 1406 1407 1407 1408 1409 1409
1476 1470 1465 1460 1456 1451 1446 1442 1438 1434 1431 1428 1425 1421 1418 1415 1413 1411 1409 1407 1406 1404 1404 1403 1404 1404 1404 1404 1403 1402 1402 1402 1402 1403 1403 1403 1404 1404 1405 1405 1406 1407 1408
1476 1471 1466 1462 1457 1452 1448 1445 1441 1438 1434 1430 1426 1422 1419 1416 1413 1411 1409 1406 1405 1403 1402 1403 1403 1404 1404 1404 1402 1401 1401 1402 1402 1402 1402 1402 1402 1403 1403 1403 1404 1405 1405
1475 1470 1466 1461 1456 1451 1447 1444 1441 1438 1434 1430 1426 1423 1419 1416 1413 1410 1407 1404 1401 1401 1401 1402 1402 1403 1404 1403 1403 1402 1402 1402 1401 1400 1400 1400 1400 1401 1401 1401 1402 1402 1401
1475 1469 1464 1459 1454 1450 1445 1442 1438 1435 1432 1428 1425 1421 1418 1415 1412 1409 1407 1404 1403 1400 1400 1401 1402 1402 1402 1402 1402 1401 1401 1400 1399 1399 1399 1398 1398 1398 1398 1398 1398 1398 1398
1473 1468 1463 1457 1452 1448 1443 1439 1436 1432 1429 1425 1423 1420 1418 1415 1412 1410 1408 1404 1403 1402 1402 1402 1401 1401 1401 1401 1400 1399 1398 1398 1397 1397 1397 1396 1396 1395 1395 1395 1394 1393 1393
1469 1464 1459 1454 1449 1445 1440 1436 1432 1429 1426 1423 1420 1418 1416 1414 1413 1410 1407 1405 1404 1403 1402 1401 1401 1400 1399 1398 1397 1397 1396 1395 1394 1394 1393 1393 1392 1391 1390 1390 1389 1388 1388
1464 1460 1454 1448 1443 1439 1434 1430 1426 1423 1421 1419 1417 1416 1414 1412 1411 1410 1408 1406 1404 1403 1401 1399 1398 1397 1396 1395 1394 1393 1393 1392 1391 1390 1389 1388 1387 1386 1385 1385 1385 1385 1384
1459 1453 1447 1441 1436 1430 1425 1421 1419 1417 1415 1413 1412 1411 1411 1410 1409 1408 1406 1405 1404 1402 1400 1398 1396 1394 1393 1391 1390 1389 1388 1387 1386 1385 1384 1384 1383 1382 1381 1381 1380 1379 1378
1453 1446 1439 1434 1428 1422 1418 1414 1412 1410 1408 1406 1405 1405 1405 1405 1404 1404 1403 1402 1401 1400 1398 1396 1393 1391 1390 1388 1387 1385 1384 1383 1382 1381 1380 1379 1378 1378 1377 1376 1375 1374 1373
1450 1442 1435 1429 1423 1417 1412 1408 1404 1401 1399 1398 1398 1398 1399 1399 1399 1399 1400 1399 1398 1396 1394 1392 1390 1387 1386 1384 1383 1382 1380 1379 1378 1376 1375 1374 1373 1372 1371 1370 1370 1369 1368
1448 1440 1432 1425 1418 1412 1407 1401 1397 1394 1393 1391 1391 1392 1392 1393 1394 1395 1395 1395 1395 1393 1391 1389 1386 1384 1382 1380 1379 1377 1376 1375 1373 1372 1371 1369 1367 1366 1365 1363 1362 1362 1361
1447 1439 1431 1423 1416 1409 1401 1395 1390 1386 1385 1384 1385 1386 1387 1388 1390 1391 1392 1392 1392 1391 1389 1386 1383 1381 1379 1378 1376 1374 1372 1370 1368 1367 1364 1362 1360 1358 1356 1355 1354 1353 1353
1447 1439 1431 1423 1414 1406 1399 1391 1385 1381 1379 1379 1380 1382 1383 1385 1386 1388 1389 1389 1389 1388 1386 1384 1382 1380 1378 1376 1374 1371 1368 1366 1363 1361 1358 1356 1353 1349 1347 1346 1345 1344 1344